| time (UTC) | temp F | wind direction | speed MPH | gust MPH | rain 1hr in | rain 24hr in | rain mn in | humidity % | barometer mb |
| 20260905204707 | 46 | 27 | 0.0 | 2.0 | 0.00 | 0.28 | 0.03 | 76 | 1013.9 |
| 20260905204159 | 47 | 40 | 0.0 | 2.0 | 0.00 | 0.28 | 0.03 | 75 | 1013.8 |
| 20260905203915 | 47 | 334 | 0.0 | 2.0 | 0.00 | 0.28 | 0.03 | 75 | 1013.8 |
| 20260905203147 | 47 | 311 | 0.0 | 1.0 | 0.00 | 0.28 | 0.03 | 74 | 1013.6 |
| 20260905202640 | 47 | 326 | 0.0 | 2.0 | 0.00 | 0.28 | 0.03 | 73 | 1013.7 |
| 20260905202136 | 47 | 313 | 0.0 | 2.0 | 0.00 | 0.28 | 0.03 | 73 | 1013.6 |
| 20260905201630 | 47 | 90 | 0.0 | 2.0 | 0.00 | 0.28 | 0.03 | 73 | 1013.6 |
| 20260905201125 | 48 | 90 | 0.0 | 4.0 | 0.00 | 0.28 | 0.03 | 73 | 1013.1 |
| 20260905200619 | 47 | 51 | 1.0 | 4.0 | 0.00 | 0.28 | 0.03 | 74 | 1013.0 |
| 20260905200111 | 47 | 44 | 1.0 | 5.0 | 0.00 | 0.28 | 0.03 | 75 | 1012.8 |
| 20260905195605 | 47 | 28 | 0.0 | 5.0 | 0.00 | 0.28 | 0.03 | 75 | 1012.7 |
| 20260905195320 | 47 | 62 | 0.0 | 3.0 | 0.00 | 0.28 | 0.03 | 75 | 1012.8 |
| 20260905194554 | 47 | 47 | 0.0 | 2.0 | 0.00 | 0.28 | 0.03 | 74 | 1012.9 |
| 20260905194046 | 47 | 50 | 0.0 | 2.0 | 0.00 | 0.28 | 0.03 | 74 | 1013.0 |
| 20260905193540 | 47 | 65 | 0.0 | 2.0 | 0.00 | 0.28 | 0.03 | 74 | 1012.9 |
| 20260905193304 | 47 | 11 | 0.0 | 3.0 | 0.00 | 0.28 | 0.03 | 74 | 1013.0 |
| 20260905192529 | 48 | 42 | 1.0 | 5.0 | 0.00 | 0.28 | 0.03 | 73 | 1012.9 |
| 20260905192024 | 48 | 293 | 2.0 | 8.0 | 0.00 | 0.28 | 0.03 | 73 | 1012.7 |
| 20260905191517 | 48 | 337 | 3.0 | 8.0 | 0.00 | 0.28 | 0.03 | 74 | 1012.6 |
| 20260905191011 | 48 | 267 | 2.0 | 7.0 | 0.00 | 0.28 | 0.03 | 74 | 1012.6 |
| 20260905190512 | 48 | 339 | 2.0 | 6.0 | 0.00 | 0.28 | 0.03 | 74 | 1012.6 |
| 20260905185958 | 48 | 295 | 1.0 | 6.0 | 0.00 | 0.28 | 0.03 | 73 | 1012.6 |
| 20260905185454 | 48 | 268 | 1.0 | 6.0 | 0.00 | 0.28 | 0.03 | 73 | 1012.6 |
| 20260905184947 | 48 | 283 | 1.0 | 6.0 | 0.00 | 0.28 | 0.03 | 73 | 1012.7 |
| 20260905184448 | 48 | 267 | 1.0 | 5.0 | 0.00 | 0.28 | 0.03 | 74 | 1012.6 |
| 20260905183948 | 48 | 271 | 0.0 | 4.0 | 0.00 | 0.28 | 0.03 | 74 | 1012.8 |
| 20260905183447 | 48 | 232 | 0.0 | 3.0 | 0.00 | 0.28 | 0.03 | 74 | 1012.7 |
| 20260905183210 | 48 | 268 | 0.0 | 3.0 | 0.00 | 0.28 | 0.03 | 73 | 1012.6 |
| 20260905182446 | 48 | 117 | 0.0 | 2.0 | 0.00 | 0.28 | 0.03 | 73 | 1012.5 |
| 20260905181943 | 48 | 290 | 1.0 | 5.0 | 0.00 | 0.28 | 0.03 | 73 | 1012.4 |
| 20260905181441 | 48 | 261 | 1.0 | 5.0 | 0.00 | 0.28 | 0.03 | 73 | 1012.3 |
| 20260905181259 | 48 | 281 | 1.0 | 7.0 | 0.00 | 0.28 | 0.03 | 73 | 1012.3 |
| 20260905175941 | 48 | 315 | 1.0 | 5.0 | 0.00 | 0.28 | 0.03 | 73 | 1012.0 |
| 20260905175703 | 48 | 255 | 1.0 | 8.0 | 0.00 | 0.28 | 0.03 | 72 | 1012.1 |
| 20260905174937 | 48 | 292 | 1.0 | 8.0 | 0.00 | 0.28 | 0.03 | 72 | 1011.9 |
| 20260905174437 | 48 | 263 | 1.0 | 8.0 | 0.00 | 0.28 | 0.03 | 72 | 1011.9 |
| 20260905173942 | 48 | 242 | 1.0 | 8.0 | 0.00 | 0.28 | 0.03 | 72 | 1011.8 |
| 20260905173437 | 48 | 248 | 2.0 | 13.0 | 0.00 | 0.28 | 0.03 | 72 | 1011.5 |
| 20260905172939 | 48 | 301 | 3.0 | 13.0 | 0.00 | 0.28 | 0.03 | 73 | 1011.2 |
| 20260905172919 | 48 | 268 | 2.0 | 9.0 | 0.00 | 0.28 | 0.03 | 74 | 1010.9 |
| 20260905171933 | 48 | 271 | 2.0 | 7.0 | 0.00 | 0.28 | 0.03 | 74 | 1011.1 |
| 20260905171432 | 48 | 268 | 2.0 | 7.0 | 0.00 | 0.28 | 0.03 | 75 | 1011.3 |
| 20260905171156 | 47 | 276 | 1.0 | 6.0 | 0.00 | 0.28 | 0.03 | 75 | 1011.2 |
| 20260905170433 | 48 | 273 | 0.0 | 4.0 | 0.00 | 0.28 | 0.03 | 75 | 1011.3 |
| 20260905165932 | 48 | 244 | 1.0 | 6.0 | 0.00 | 0.28 | 0.03 | 75 | 1011.4 |
| 20260905165659 | 48 | 251 | 1.0 | 6.0 | 0.00 | 0.28 | 0.03 | 75 | 1011.2 |
| 20260905164933 | 48 | 289 | 1.0 | 6.0 | 0.00 | 0.28 | 0.03 | 76 | 1011.1 |
| 20260905164657 | 48 | 246 | 1.0 | 4.0 | 0.00 | 0.28 | 0.03 | 75 | 1010.8 |
| 20260905163928 | 48 | 286 | 1.0 | 8.0 | 0.00 | 0.28 | 0.03 | 75 | 1010.7 |
| 20260905163430 | 48 | 244 | 2.0 | 8.0 | 0.00 | 0.28 | 0.03 | 75 | 1010.6 |
| 20260905162928 | 48 | 284 | 2.0 | 8.0 | 0.00 | 0.28 | 0.03 | 75 | 1010.7 |
| 20260905162429 | 48 | 277 | 1.0 | 8.0 | 0.00 | 0.28 | 0.03 | 75 | 1010.7 |
| 20260905161928 | 48 | 256 | 2.0 | 6.0 | 0.00 | 0.28 | 0.03 | 74 | 1010.6 |
| 20260905161429 | 48 | 261 | 2.0 | 14.0 | 0.00 | 0.28 | 0.03 | 74 | 1010.6 |
| 20260905160929 | 48 | 295 | 2.0 | 14.0 | 0.00 | 0.28 | 0.03 | 74 | 1010.6 |
| 20260905160429 | 48 | 282 | 1.0 | 5.0 | 0.00 | 0.28 | 0.03 | 75 | 1010.6 |
| 20260905155929 | 48 | 258 | 1.0 | 6.0 | 0.00 | 0.28 | 0.03 | 75 | 1010.8 |
| 20260905155656 | 48 | 306 | 1.0 | 6.0 | 0.00 | 0.28 | 0.03 | 75 | 1010.8 |
| 20260905154928 | 48 | 282 | 0.0 | 6.0 | 0.00 | 0.28 | 0.03 | 75 | 1011.0 |
| 20260905154429 | 48 | 193 | 2.0 | 11.0 | 0.00 | 0.28 | 0.03 | 75 | 1011.0 |
| 20260905153929 | 48 | 287 | 4.0 | 11.0 | 0.00 | 0.28 | 0.03 | 75 | 1010.7 |
| 20260905153429 | 48 | 296 | 3.0 | 11.0 | 0.00 | 0.28 | 0.03 | 76 | 1010.7 |
| 20260905152926 | 48 | 315 | 3.0 | 8.0 | 0.00 | 0.28 | 0.03 | 77 | 1010.6 |
| 20260905152427 | 48 | 280 | 3.0 | 12.0 | 0.00 | 0.28 | 0.03 | 78 | 1011.1 |
| 20260905151925 | 47 | 267 | 2.0 | 12.0 | 0.01 | 0.28 | 0.03 | 79 | 1011.1 |
| 20260905151425 | 47 | 329 | 2.0 | 10.0 | 0.02 | 0.28 | 0.03 | 80 | 1010.7 |
| 20260905150925 | 47 | 338 | 2.0 | 9.0 | 0.03 | 0.28 | 0.03 | 80 | 1010.5 |
| 20260905150424 | 47 | 261 | 3.0 | 11.0 | 0.03 | 0.28 | 0.03 | 80 | 1010.6 |
| 20260905145923 | 47 | 298 | 2.0 | 11.0 | 0.03 | 0.28 | 0.03 | 81 | 1010.6 |
| 20260905145418 | 47 | 306 | 1.0 | 10.0 | 0.03 | 0.28 | 0.03 | 83 | 1010.7 |
| 20260905144912 | 47 | 334 | 1.0 | 5.0 | 0.03 | 0.28 | 0.03 | 84 | 1010.7 |
| 20260905144406 | 47 | 284 | 1.0 | 5.0 | 0.03 | 0.28 | 0.03 | 86 | 1010.8 |
| 20260905143900 | 47 | 312 | 1.0 | 5.0 | 0.03 | 0.28 | 0.03 | 86 | 1010.7 |
| 20260905143354 | 47 | 318 | 1.0 | 5.0 | 0.03 | 0.28 | 0.03 | 86 | 1010.7 |
| 20260905142848 | 47 | 300 | 1.0 | 8.0 | 0.03 | 0.28 | 0.03 | 85 | 1010.9 |
| 20260905142342 | 48 | 291 | 2.0 | 10.0 | 0.03 | 0.28 | 0.03 | 83 | 1010.7 |
| 20260905141836 | 49 | 275 | 3.0 | 11.0 | 0.02 | 0.26 | 0.02 | 80 | 1010.7 |
| 20260905141330 | 50 | 343 | 2.0 | 11.0 | 0.00 | 0.24 | 0.01 | 75 | 1010.7 |
| 20260905140823 | 51 | 223 | 2.0 | 11.0 | 0.00 | 0.24 | 0.00 | 71 | 1010.6 |
| 20260905140318 | 51 | 315 | 2.0 | 11.0 | 0.00 | 0.24 | 0.00 | 69 | 1010.4 |
| 20260905135814 | 50 | 275 | 2.0 | 13.0 | 0.00 | 0.24 | 0.24 | 69 | 1010.3 |
| 20260905135307 | 50 | 248 | 2.0 | 13.0 | 0.00 | 0.24 | 0.24 | 69 | 1010.3 |
| 20260905134807 | 50 | 289 | 2.0 | 12.0 | 0.00 | 0.24 | 0.24 | 68 | 1010.2 |
| 20260905134307 | 51 | 276 | 2.0 | 8.0 | 0.00 | 0.24 | 0.24 | 69 | 1010.1 |
| 20260905134253 | 50 | 275 | 2.0 | 9.0 | 0.00 | 0.24 | 0.24 | 69 | 1010.3 |
| 20260905133307 | 50 | 295 | 2.0 | 9.0 | 0.00 | 0.24 | 0.24 | 69 | 1010.3 |
| 20260905132808 | 51 | 286 | 2.0 | 8.0 | 0.00 | 0.24 | 0.24 | 70 | 1010.5 |
| 20260905132307 | 51 | 281 | 2.0 | 8.0 | 0.00 | 0.24 | 0.24 | 69 | 1010.3 |
| 20260905131807 | 51 | 157 | 2.0 | 9.0 | 0.00 | 0.24 | 0.24 | 70 | 1010.3 |
| 20260905131526 | 51 | 254 | 3.0 | 10.0 | 0.00 | 0.24 | 0.24 | 71 | 1010.3 |
| 20260905130803 | 51 | 256 | 3.0 | 12.0 | 0.00 | 0.24 | 0.24 | 71 | 1010.3 |
| 20260905130303 | 51 | 270 | 3.0 | 12.0 | 0.00 | 0.24 | 0.24 | 72 | 1010.4 |
| 20260905125803 | 51 | 277 | 2.0 | 11.0 | 0.00 | 0.24 | 0.24 | 73 | 1010.4 |
| 20260905125306 | 50 | 283 | 2.0 | 11.0 | 0.00 | 0.24 | 0.24 | 74 | 1010.4 |
| 20260905124803 | 50 | 300 | 2.0 | 7.0 | 0.00 | 0.24 | 0.24 | 75 | 1010.4 |
| 20260905124304 | 50 | 297 | 2.0 | 11.0 | 0.00 | 0.24 | 0.24 | 76 | 1010.3 |
| 20260905123803 | 50 | 265 | 2.0 | 11.0 | 0.00 | 0.24 | 0.24 | 76 | 1010.4 |
| 20260905123301 | 50 | 275 | 2.0 | 9.0 | 0.00 | 0.24 | 0.24 | 77 | 1010.4 |
| 20260905122757 | 51 | 256 | 3.0 | 11.0 | 0.00 | 0.24 | 0.24 | 76 | 1010.2 |
| 20260905122514 | 51 | 224 | 4.0 | 12.0 | 0.00 | 0.24 | 0.24 | 75 | 1010.1 |
| 20260905122023 | 51 | 48 | 4.0 | 13.0 | 0.00 | 0.24 | 0.24 | 74 | 1010.2 |
| 20260905121256 | 52 | 253 | 6.0 | 17.0 | 0.00 | 0.24 | 0.24 | 72 | 1009.8 |
| 20260905120756 | 53 | 266 | 6.0 | 18.0 | 0.00 | 0.24 | 0.24 | 69 | 1009.8 |
| 20260905120257 | 53 | 306 | 4.0 | 18.0 | 0.00 | 0.24 | 0.24 | 69 | 1009.8 |
| 20260905115757 | 53 | 329 | 3.0 | 12.0 | 0.00 | 0.24 | 0.24 | 69 | 1009.7 |
| 20260905115257 | 53 | 313 | 3.0 | 10.0 | 0.00 | 0.24 | 0.24 | 68 | 1009.5 |
| 20260905114757 | 53 | 296 | 2.0 | 10.0 | 0.00 | 0.24 | 0.24 | 68 | 1009.5 |
| 20260905114254 | 53 | 324 | 1.0 | 5.0 | 0.00 | 0.24 | 0.24 | 67 | 1009.6 |
| 20260905113754 | 53 | 56 | 2.0 | 8.0 | 0.00 | 0.24 | 0.24 | 66 | 1009.5 |
| 20260905113254 | 53 | 320 | 2.0 | 10.0 | 0.00 | 0.24 | 0.24 | 65 | 1009.6 |
| 20260905112754 | 53 | 326 | 2.0 | 10.0 | 0.00 | 0.24 | 0.24 | 65 | 1009.7 |
| 20260905112254 | 53 | 33 | 2.0 | 7.0 | 0.00 | 0.24 | 0.24 | 65 | 1009.8 |
| 20260905111755 | 53 | 304 | 3.0 | 9.0 | 0.00 | 0.24 | 0.24 | 64 | 1010.2 |
| 20260905111255 | 54 | 273 | 3.0 | 9.0 | 0.00 | 0.24 | 0.24 | 63 | 1010.2 |
| 20260905111012 | 54 | 340 | 3.0 | 10.0 | 0.00 | 0.24 | 0.24 | 64 | 1010.1 |
| 20260905110254 | 54 | 258 | 3.0 | 10.0 | 0.00 | 0.24 | 0.24 | 63 | 1010.1 |
| 20260905105753 | 54 | 298 | 2.0 | 10.0 | 0.00 | 0.24 | 0.24 | 64 | 1010.0 |
| 20260905105254 | 54 | 281 | 2.0 | 10.0 | 0.00 | 0.24 | 0.24 | 63 | 1010.0 |
| 20260905104755 | 55 | 302 | 4.0 | 15.0 | 0.00 | 0.24 | 0.24 | 63 | 1010.0 |
| 20260905104253 | 55 | 295 | 5.0 | 15.0 | 0.00 | 0.24 | 0.24 | 62 | 1009.8 |
| 20260905103753 | 55 | 320 | 4.0 | 14.0 | 0.00 | 0.24 | 0.24 | 62 | 1010.0 |
| 20260905103254 | 55 | 270 | 4.0 | 12.0 | 0.00 | 0.24 | 0.24 | 63 | 1009.8 |
| 20260905102754 | 55 | 267 | 5.0 | 12.0 | 0.00 | 0.24 | 0.24 | 62 | 1009.8 |
| 20260905102254 | 55 | 299 | 4.0 | 11.0 | 0.00 | 0.24 | 0.24 | 63 | 1009.7 |
| 20260905101753 | 55 | 269 | 3.0 | 8.0 | 0.00 | 0.24 | 0.24 | 65 | 1009.7 |
| 20260905101253 | 55 | 340 | 3.0 | 8.0 | 0.00 | 0.24 | 0.24 | 65 | 1009.7 |
| 20260905100754 | 55 | 310 | 3.0 | 8.0 | 0.00 | 0.24 | 0.24 | 64 | 1009.5 |
| 20260905100251 | 55 | 251 | 3.0 | 8.0 | 0.00 | 0.24 | 0.24 | 64 | 1009.5 |
| 20260905095752 | 55 | 0 | 3.0 | 9.0 | 0.00 | 0.24 | 0.24 | 63 | 1009.4 |
| 20260905095245 | 56 | 316 | 5.0 | 12.0 | 0.00 | 0.24 | 0.24 | 63 | 1009.4 |
| 20260905094740 | 56 | 298 | 6.0 | 17.0 | 0.00 | 0.24 | 0.24 | 63 | 1009.3 |
| 20260905094234 | 56 | 293 | 5.0 | 17.0 | 0.00 | 0.24 | 0.24 | 64 | 1009.1 |
| 20260905093727 | 56 | 57 | 5.0 | 18.0 | 0.00 | 0.24 | 0.24 | 65 | 1009.1 |
| 20260905093315 | 56 | 287 | 5.0 | 18.0 | 0.00 | 0.24 | 0.24 | 65 | 1009.1 |
| 20260905092209 | 56 | 310 | 5.0 | 17.0 | 0.00 | 0.24 | 0.24 | 69 | 1008.6 |
| 20260905091708 | 56 | 288 | 6.0 | 19.0 | 0.00 | 0.24 | 0.24 | 68 | 1008.7 |
| 20260905091207 | 56 | 326 | 5.0 | 19.0 | 0.00 | 0.24 | 0.24 | 69 | 1008.6 |
| 20260905090704 | 56 | 248 | 4.0 | 16.0 | 0.00 | 0.24 | 0.24 | 71 | 1008.6 |
| 20260905090204 | 56 | 213 | 4.0 | 14.0 | 0.00 | 0.24 | 0.24 | 71 | 1008.6 |
| 20260905085705 | 56 | 228 | 4.0 | 14.0 | 0.00 | 0.24 | 0.24 | 72 | 1008.5 |
| 20260905085204 | 55 | 348 | 3.0 | 14.0 | 0.00 | 0.24 | 0.24 | 73 | 1008.5 |
| 20260905084704 | 55 | 251 | 3.0 | 11.0 | 0.00 | 0.24 | 0.24 | 74 | 1008.3 |
| 20260905084204 | 55 | 282 | 3.0 | 11.0 | 0.00 | 0.24 | 0.24 | 75 | 1008.1 |
| 20260905083706 | 55 | 330 | 3.0 | 8.0 | 0.00 | 0.24 | 0.24 | 76 | 1008.1 |
| 20260905083205 | 55 | 265 | 3.0 | 10.0 | 0.00 | 0.24 | 0.24 | 76 | 1008.0 |
| 20260905082704 | 55 | 270 | 3.0 | 13.0 | 0.00 | 0.24 | 0.24 | 77 | 1008.0 |
| 20260905082204 | 55 | 289 | 3.0 | 13.0 | 0.00 | 0.24 | 0.24 | 77 | 1007.9 |
| 20260905081704 | 55 | 252 | 3.0 | 14.0 | 0.00 | 0.24 | 0.24 | 77 | 1007.8 |
| 20260905081204 | 55 | 277 | 4.0 | 14.0 | 0.00 | 0.24 | 0.24 | 77 | 1007.7 |
| 20260905080704 | 55 | 7 | 4.0 | 12.0 | 0.00 | 0.24 | 0.24 | 77 | 1007.8 |
| 20260905080206 | 55 | 294 | 4.0 | 12.0 | 0.00 | 0.24 | 0.24 | 78 | 1007.9 |
| 20260905075705 | 55 | 242 | 3.0 | 11.0 | 0.00 | 0.24 | 0.24 | 78 | 1007.7 |
| 20260905075159 | 55 | 276 | 3.0 | 11.0 | 0.00 | 0.24 | 0.24 | 78 | 1007.7 |
| 20260905074655 | 55 | 277 | 3.0 | 11.0 | 0.01 | 0.24 | 0.24 | 78 | 1007.8 |
| 20260905074147 | 55 | 294 | 3.0 | 13.0 | 0.02 | 0.24 | 0.24 | 78 | 1007.7 |
| 20260905073909 | 55 | 311 | 4.0 | 13.0 | 0.02 | 0.24 | 0.24 | 78 | 1007.8 |
| 20260905073135 | 55 | 295 | 4.0 | 12.0 | 0.02 | 0.24 | 0.24 | 79 | 1007.8 |
| 20260905072629 | 55 | 315 | 4.0 | 14.0 | 0.02 | 0.24 | 0.24 | 80 | 1007.7 |
| 20260905072125 | 55 | 295 | 4.0 | 14.0 | 0.03 | 0.24 | 0.24 | 81 | 1007.7 |
| 20260905071619 | 55 | 315 | 4.0 | 13.0 | 0.03 | 0.24 | 0.24 | 83 | 1007.7 |
| 20260905071333 | 55 | 268 | 4.0 | 15.0 | 0.05 | 0.24 | 0.24 | 85 | 1007.7 |
| 20260905070612 | 55 | 325 | 5.0 | 16.0 | 0.05 | 0.24 | 0.24 | 86 | 1007.6 |
| 20260905070059 | 55 | 268 | 4.0 | 16.0 | 0.05 | 0.24 | 0.24 | 89 | 1007.7 |
| 20260905065556 | 54 | 65 | 4.0 | 14.0 | 0.05 | 0.24 | 0.24 | 90 | 1007.5 |
| 20260905065047 | 54 | 346 | 4.0 | 11.0 | 0.04 | 0.24 | 0.24 | 91 | 1007.6 |
| 20260905064541 | 54 | 189 | 4.0 | 11.0 | 0.04 | 0.24 | 0.24 | 91 | 1007.4 |
| 20260905064040 | 54 | 257 | 4.0 | 14.0 | 0.03 | 0.23 | 0.23 | 91 | 1007.6 |
| 20260905063750 | 55 | 294 | 4.0 | 14.0 | 0.03 | 0.23 | 0.23 | 90 | 1007.5 |
| 20260905063026 | 55 | 41 | 4.0 | 15.0 | 0.02 | 0.22 | 0.22 | 90 | 1007.6 |
| 20260905062526 | 55 | 309 | 5.0 | 15.0 | 0.02 | 0.22 | 0.22 | 90 | 1007.5 |
| 20260905062027 | 54 | 2 | 5.0 | 14.0 | 0.02 | 0.21 | 0.21 | 91 | 1007.2 |
| 20260905061527 | 54 | 324 | 4.0 | 11.0 | 0.02 | 0.21 | 0.21 | 91 | 1007.4 |
| 20260905061246 | 54 | 32 | 4.0 | 10.0 | 0.00 | 0.20 | 0.20 | 91 | 1007.4 |
| 20260905060526 | 54 | 6 | 3.0 | 9.0 | 0.00 | 0.20 | 0.20 | 91 | 1007.4 |
| 20260905060026 | 54 | 33 | 3.0 | 12.0 | 0.00 | 0.20 | 0.20 | 90 | 1007.3 |
| 20260905055744 | 54 | 348 | 3.0 | 12.0 | 0.00 | 0.20 | 0.20 | 90 | 1007.4 |
| 20260905055026 | 54 | 50 | 3.0 | 9.0 | 0.00 | 0.20 | 0.20 | 90 | 1007.2 |
| 20260905054525 | 54 | 325 | 3.0 | 13.0 | 0.00 | 0.20 | 0.20 | 90 | 1007.4 |
| 20260905054026 | 54 | 46 | 2.0 | 13.0 | 0.00 | 0.20 | 0.20 | 91 | 1007.6 |
| 20260905053526 | 54 | 293 | 2.0 | 6.0 | 0.01 | 0.20 | 0.20 | 91 | 1007.7 |
| 20260905053026 | 54 | 17 | 2.0 | 8.0 | 0.02 | 0.20 | 0.20 | 91 | 1007.7 |
| 20260905052525 | 54 | 355 | 2.0 | 8.0 | 0.04 | 0.20 | 0.20 | 92 | 1008.0 |
| 20260905052026 | 53 | 67 | 3.0 | 11.0 | 0.05 | 0.20 | 0.20 | 92 | 1008.1 |
| 20260905051527 | 53 | 341 | 5.0 | 15.0 | 0.06 | 0.20 | 0.20 | 92 | 1008.5 |
| 20260905051027 | 53 | 35 | 4.0 | 15.0 | 0.06 | 0.20 | 0.20 | 92 | 1008.7 |
| 20260905050522 | 53 | 33 | 3.0 | 8.0 | 0.06 | 0.20 | 0.20 | 92 | 1009.0 |
| 20260905050016 | 53 | 17 | 2.0 | 11.0 | 0.07 | 0.20 | 0.20 | 92 | 1008.9 |
| 20260905045507 | 54 | 73 | 2.0 | 11.0 | 0.07 | 0.20 | 0.20 | 92 | 1008.9 |
| 20260905045004 | 54 | 45 | 2.0 | 9.0 | 0.07 | 0.20 | 0.20 | 92 | 1009.2 |
| 20260905044457 | 53 | 36 | 2.0 | 9.0 | 0.08 | 0.20 | 0.20 | 91 | 1009.3 |
| 20260905044215 | 53 | 332 | 2.0 | 7.0 | 0.08 | 0.20 | 0.20 | 91 | 1009.4 |
| 20260905043445 | 53 | 52 | 1.0 | 5.0 | 0.07 | 0.18 | 0.19 | 90 | 1009.6 |
| 20260905042940 | 54 | 270 | 1.0 | 5.0 | 0.07 | 0.17 | 0.17 | 90 | 1010.5 |
| 20260905042651 | 54 | 340 | 1.0 | 8.0 | 0.06 | 0.16 | 0.16 | 89 | 1010.4 |
| 20260905041927 | 54 | 326 | 2.0 | 8.0 | 0.05 | 0.15 | 0.15 | 88 | 1010.3 |
| 20260905041421 | 54 | 320 | 3.0 | 8.0 | 0.05 | 0.14 | 0.14 | 87 | 1010.4 |
| 20260905040916 | 54 | 247 | 3.0 | 8.0 | 0.04 | 0.13 | 0.13 | 86 | 1010.3 |
| 20260905040414 | 54 | 291 | 3.0 | 8.0 | 0.04 | 0.13 | 0.13 | 86 | 1010.4 |
| 20260905040359 | 54 | 268 | 3.0 | 8.0 | 0.03 | 0.13 | 0.13 | 86 | 1010.6 |
| 20260905035414 | 55 | 0 | 2.0 | 9.0 | 0.03 | 0.13 | 0.13 | 86 | 1010.7 |
| 20260905035141 | 55 | 26 | 2.0 | 9.0 | 0.03 | 0.13 | 0.13 | 85 | 1010.7 |
| 20260905034413 | 55 | 315 | 2.0 | 8.0 | 0.02 | 0.12 | 0.12 | 86 | 1010.4 |
| 20260905033916 | 55 | 252 | 2.0 | 8.0 | 0.02 | 0.12 | 0.12 | 85 | 1010.7 |
| 20260905033413 | 56 | 315 | 3.0 | 13.0 | 0.02 | 0.11 | 0.11 | 84 | 1010.4 |
| 20260905032913 | 56 | 22 | 4.0 | 13.0 | 0.01 | 0.10 | 0.10 | 83 | 1010.7 |
| 20260905032638 | 57 | 236 | 3.0 | 9.0 | 0.01 | 0.10 | 0.10 | 83 | 1011.1 |
| 20260905031914 | 57 | 284 | 3.0 | 11.0 | 0.01 | 0.10 | 0.10 | 82 | 1010.6 |
| 20260905031637 | 57 | 272 | 3.0 | 11.0 | 0.00 | 0.09 | 0.09 | 81 | 1010.4 |
| 20260905030914 | 58 | 312 | 4.0 | 11.0 | 0.00 | 0.09 | 0.09 | 80 | 1010.3 |
| 20260905030414 | 58 | 305 | 4.0 | 13.0 | 0.00 | 0.09 | 0.09 | 79 | 1010.1 |
| 20260905025916 | 58 | 294 | 4.0 | 13.0 | 0.00 | 0.09 | 0.09 | 79 | 1010.1 |
| 20260905025410 | 58 | 351 | 4.0 | 14.0 | 0.00 | 0.09 | 0.09 | 79 | 1009.8 |
| 20260905024910 | 59 | 23 | 4.0 | 14.0 | 0.00 | 0.09 | 0.09 | 78 | 1009.7 |
| 20260905024410 | 59 | 35 | 4.0 | 14.0 | 0.00 | 0.09 | 0.09 | 79 | 1010.3 |
| 20260905024404 | 59 | 62 | 4.0 | 14.0 | 0.00 | 0.09 | 0.09 | 79 | 1010.1 |
| 20260905023409 | 59 | 354 | 3.0 | 10.0 | 0.00 | 0.09 | 0.09 | 82 | 1010.2 |
| 20260905022911 | 59 | 283 | 4.0 | 9.0 | 0.00 | 0.09 | 0.09 | 82 | 1010.1 |
| 20260905022641 | 59 | 297 | 3.0 | 9.0 | 0.00 | 0.09 | 0.09 | 84 | 1010.2 |
| 20260905021909 | 59 | 304 | 4.0 | 9.0 | 0.00 | 0.09 | 0.09 | 84 | 1010.2 |
| 20260905021409 | 59 | 297 | 4.0 | 9.0 | 0.00 | 0.09 | 0.09 | 84 | 1010.3 |
| 20260905021350 | 59 | 42 | 4.0 | 10.0 | 0.00 | 0.09 | 0.09 | 84 | 1010.4 |
| 20260905020409 | 58 | 4 | 4.0 | 10.0 | 0.00 | 0.09 | 0.09 | 86 | 1010.5 |
| 20260905015909 | 58 | 283 | 3.0 | 8.0 | 0.00 | 0.09 | 0.09 | 87 | 1010.5 |
| 20260905015410 | 58 | 318 | 2.0 | 8.0 | 0.00 | 0.09 | 0.09 | 89 | 1010.6 |
| 20260905014911 | 58 | 303 | 2.0 | 7.0 | 0.01 | 0.09 | 0.09 | 89 | 1010.6 |
| 20260905014415 | 58 | 309 | 1.0 | 7.0 | 0.01 | 0.09 | 0.09 | 90 | 1010.4 |
| 20260905013910 | 57 | 325 | 1.0 | 5.0 | 0.01 | 0.09 | 0.09 | 91 | 1010.6 |
| 20260905013411 | 57 | 292 | 2.0 | 5.0 | 0.01 | 0.09 | 0.09 | 91 | 1010.9 |
| 20260905012910 | 57 | 31 | 1.0 | 5.0 | 0.01 | 0.09 | 0.09 | 90 | 1011.2 |
| 20260905012410 | 56 | 331 | 1.0 | 5.0 | 0.02 | 0.09 | 0.09 | 91 | 1011.2 |
| 20260905012142 | 56 | 276 | 2.0 | 7.0 | 0.02 | 0.09 | 0.09 | 91 | 1011.3 |
| 20260905011409 | 56 | 302 | 2.0 | 7.0 | 0.02 | 0.09 | 0.09 | 91 | 1011.3 |
| 20260905011132 | 56 | 16 | 2.0 | 7.0 | 0.02 | 0.09 | 0.09 | 92 | 1011.3 |
| 20260905010409 | 56 | 301 | 2.0 | 6.0 | 0.03 | 0.09 | 0.09 | 92 | 1011.3 |
| 20260905005910 | 55 | 41 | 2.0 | 6.0 | 0.05 | 0.09 | 0.09 | 92 | 1011.4 |
| 20260905005639 | 55 | 57 | 2.0 | 6.0 | 0.06 | 0.09 | 0.09 | 91 | 1011.5 |
| 20260905004910 | 55 | 57 | 3.0 | 7.0 | 0.07 | 0.09 | 0.09 | 92 | 1011.8 |
| 20260905004409 | 54 | 17 | 4.0 | 9.0 | 0.07 | 0.09 | 0.09 | 91 | 1012.0 |
| 20260905003920 | 54 | 27 | 3.0 | 9.0 | 0.08 | 0.09 | 0.09 | 91 | 1012.0 |
| 20260905003409 | 54 | 3 | 3.0 | 8.0 | 0.09 | 0.09 | 0.09 | 90 | 1012.4 |
| 20260905002858 | 54 | 17 | 2.0 | 5.0 | 0.09 | 0.09 | 0.09 | 90 | 1012.2 |
| 20260905002619 | 54 | 15 | 2.0 | 9.0 | 0.08 | 0.08 | 0.08 | 90 | 1012.4 |
| 20260905001845 | 54 | 40 | 2.0 | 9.0 | 0.08 | 0.08 | 0.08 | 89 | 1012.6 |
| 20260905001344 | 55 | 8 | 2.0 | 7.0 | 0.07 | 0.07 | 0.08 | 88 | 1012.5 |
| 20260905001109 | 55 | 38 | 1.0 | 7.0 | 0.07 | 0.07 | 0.07 | 88 | 1012.7 |
| 20260905000342 | 55 | 38 | 1.0 | 5.0 | 0.06 | 0.06 | 0.06 | 88 | 1012.9 |
| 20260904235841 | 55 | 22 | 1.0 | 6.0 | 0.05 | 0.05 | 0.06 | 87 | 1012.8 |
| 20260904235341 | 56 | 278 | 1.0 | 6.0 | 0.03 | 0.03 | 0.03 | 85 | 1013.1 |
| 20260904234842 | 56 | 325 | 1.0 | 7.0 | 0.02 | 0.02 | 0.02 | 84 | 1012.7 |
| 20260904234342 | 57 | 355 | 2.0 | 8.0 | 0.02 | 0.02 | 0.02 | 82 | 1012.5 |
| 20260904233842 | 57 | 32 | 2.0 | 9.0 | 0.01 | 0.01 | 0.01 | 80 | 1012.7 |
| 20260904233341 | 58 | 313 | 3.0 | 9.0 | 0.00 | 0.00 | 0.00 | 79 | 1012.6 |
| 20260904232843 | 58 | 294 | 2.0 | 9.0 | 0.00 | 0.00 | 0.00 | 79 | 1012.5 |
| 20260904232342 | 58 | 339 | 2.0 | 9.0 | 0.00 | 0.00 | 0.00 | 79 | 1012.5 |
| 20260904231842 | 57 | 52 | 2.0 | 6.0 | 0.00 | 0.00 | 0.00 | 80 | 1012.4 |
| 20260904231605 | 56 | 353 | 2.0 | 7.0 | 0.00 | 0.00 | 0.00 | 81 | 1012.6 |
| 20260904230842 | 56 | 38 | 2.0 | 8.0 | 0.00 | 0.00 | 0.00 | 81 | 1012.7 |
| 20260904230341 | 56 | 302 | 2.0 | 8.0 | 0.00 | 0.00 | 0.00 | 80 | 1012.8 |
| 20260904225841 | 56 | 303 | 2.0 | 8.0 | 0.00 | 0.00 | 0.00 | 81 | 1013.0 |
| 20260904225600 | 56 | 67 | 3.0 | 8.0 | 0.00 | 0.00 | 0.00 | 80 | 1013.0 |
| 20260904224828 | 56 | 331 | 2.0 | 6.0 | 0.00 | 0.00 | 0.00 | 78 | 1012.7 |
| 20260904224324 | 56 | 301 | 2.0 | 6.0 | 0.00 | 0.00 | 0.00 | 77 | 1013.0 |
| 20260904223817 | 56 | 325 | 2.0 | 7.0 | 0.00 | 0.00 | 0.00 | 76 | 1013.2 |
| 20260904223311 | 57 | 339 | 2.0 | 7.0 | 0.00 | 0.00 | 0.00 | 75 | 1013.6 |
| 20260904222805 | 57 | 52 | 1.0 | 6.0 | 0.00 | 0.00 | 0.00 | 74 | 1013.8 |
| 20260904222259 | 56 | 331 | 1.0 | 8.0 | 0.00 | 0.00 | 0.00 | 75 | 1013.8 |
| 20260904221753 | 56 | 64 | 2.0 | 8.0 | 0.00 | 0.00 | 0.00 | 75 | 1013.9 |
| 20260904221246 | 56 | 308 | 2.0 | 6.0 | 0.00 | 0.00 | 0.00 | 75 | 1013.8 |
| 20260904220741 | 56 | 45 | 2.0 | 7.0 | 0.00 | 0.00 | 0.00 | 75 | 1013.9 |
| 20260904220235 | 56 | 51 | 1.0 | 7.0 | 0.00 | 0.00 | 0.00 | 76 | 1013.8 |
| 20260904215729 | 55 | 88 | 1.0 | 7.0 | 0.00 | 0.00 | 0.00 | 77 | 1013.7 |
| 20260904215224 | 54 | 286 | 3.0 | 11.0 | 0.00 | 0.00 | 0.00 | 78 | 1013.6 |
| 20260904214717 | 54 | 354 | 2.0 | 11.0 | 0.00 | 0.00 | 0.00 | 78 | 1013.5 |
| 20260904214210 | 53 | 348 | 1.0 | 4.0 | 0.00 | 0.00 | 0.00 | 79 | 1013.6 |
| 20260904213705 | 53 | 108 | 0.0 | 3.0 | 0.00 | 0.00 | 0.00 | 80 | 1013.6 |
| 20260904213159 | 53 | 355 | 0.0 | 3.0 | 0.00 | 0.00 | 0.00 | 81 | 1013.7 |
| 20260904212653 | 52 | 34 | 0.0 | 0.0 | 0.00 | 0.00 | 0.00 | 82 | 1013.7 |
| 20260904212146 | 52 | 34 | 0.0 | 0.0 | 0.00 | 0.00 | 0.00 | 82 | 1013.8 |
| 20260904211641 | 52 | 34 | 0.0 | 0.0 | 0.00 | 0.00 | 0.00 | 83 | 1013.7 |
| 20260904211135 | 51 | 34 | 0.0 | 1.0 | 0.00 | 0.00 | 0.00 | 83 | 1013.6 |
| 20260904210629 | 51 | 15 | 0.0 | 3.0 | 0.00 | 0.00 | 0.00 | 84 | 1013.7 |
| 20260904210125 | 50 | 337 | 0.0 | 3.0 | 0.00 | 0.00 | 0.00 | 85 | 1013.9 |
| 20260904205617 | 50 | 22 | 0.0 | 1.0 | 0.00 | 0.00 | 0.00 | 84 | 1014.0 |
| 20260904205112 | 50 | 69 | 0.0 | 1.0 | 0.00 | 0.00 | 0.00 | 84 | 1014.1 |